sat.trackr.live / text

‹ back to catalog

STARLINK-31120

NORAD 58778 · 2024-011P

PAYLOAD ACTIVE UNKNOWN

§ Identity

Operator
Country
US
Launch date
2024-01-14
Launch site
AFWTR
Launch vehicle
Mass (kg)
RCS (m²)

Purposes: comms

External: N2YO · Heavens-Above · Gunter

§ Orbital elements

Epoch: 2026-09-20T01:48:17.074368Z

Period
93.85 min
Inclination
53.1601°
Eccentricity
0.0001405
Mean motion
15.34384005 rev/d
Perigee alt
461.8 km
Apogee alt
463.7 km
Semi-major
6,840.9 km
B*
-5.6704e-5
RAAN
187.7858°
Arg perigee
94.0706°
Mean anomaly
266.0458°
Rev number
15,007

§ Raw data

STARLINK-311201 58778U 24011P   26263.07519762 -.00002291  00000+0 -56704-4 0  99902 58778  53.1601 187.7858 0001405  94.0706 266.0458 15.34384005150070

JSON: /api/v1/satellites/58778 · /tle

For live sub-satellite position, see the globe view (requires WebGL).

§ Visibility from observer

Set your observer location to see the next 7 days of passes ≥ 10°. The values pass through the URL so the page stays shareable.

No JS? Fill the form by hand. The geolocation button needs JavaScript.